Regional Weather Roundup
Issued by NWS

Home | Current Version | Previous Version | Graphics & Text | Print | Product List | Glossary On
Versions: 1 2 3 4 5 6 7 8 9 10 11 12 13 14 15 16 17 18 19 20 21 22 23 24 25 26 27 28 29 30 31 32 33 34 35 36 37 38 39 40 41 42 43 44 45 46 47 48 49 50
000
ASUS43 KLOT 261009
RWRIL

ILLINOIS REGIONAL WEATHER ROUNDUP
NATIONAL WEATHER SERVICE CHICAGO/ROMEOVILLE IL
500 AM CDT MON JUN 26 2017

NOTE: "FAIR" INDICATES FEW OR NO CLOUDS BELOW 12,000 FEET WITH NO
SIGNIFICANT WEATHER AND/OR OBSTRUCTIONS TO VISIBILITY.

* THESE STATIONS ARE NOT UNDER NWS QUALITY CONTROL. THEY ALSO MAY NOT
  REPORT WEATHER SUCH AS PRECIPITATION OR FOG.

ILZ001-002-007-009-015-016-024-261100-
NORTHWEST ILLINOIS

CITY           SKY/WX    TMP DP  RH WIND       PRES   REMARKS
MOLINE         CLEAR     51  45  79 SW5       30.15S
STERLING*      CLEAR     50  48  93 W6        30.15R
SAVANNA*       MOCLDY    56  47  71 W8        30.13R
$$

ILZ003-004-008-010-011-017-018-261100-
NORTH CENTRAL ILLINOIS

CITY           SKY/WX    TMP DP  RH WIND       PRES   REMARKS
ROCKFORD       MOCLDY    53  48  83 CALM      30.14R
FREEPORT*      CLOUDY    50  46  88 W5        30.15R
ROCHELLE*      CLEAR     49  48  97 W6        30.13S
DE KALB*       CLEAR     53  49  86 W8        30.13R
PERU*          CLEAR     50  47  90 W9        30.15R
$$

ILZ005-006-012>014-019>023-261100-
NORTHEAST ILLINOIS

CITY           SKY/WX    TMP DP  RH WIND       PRES   REMARKS
CHICAGO-OHARE  PTCLDY    54  48  80 W6        30.09S
CHICAGO-MIDWAY PTCLDY    57  50  77 NW5       30.10R
AURORA         CLEAR     50  48  93 W5        30.12R
LANSING*       CLEAR     49  47  90 CALM      30.11S
JOLIET*        PTCLDY    53  50  90 CALM      30.12S
WAUKEGAN       CLEAR     53  52  96 SW3       30.08S
DUPAGE AIRPORT CLEAR     51  50  96 CALM      30.11R
WHEELING       CLEAR     55  51  86 CALM      30.11S
MORRIS*        CLEAR     51  48  89 W7        30.11S
ROMEOVILLE*    PTCLDY    51  47  85 W6        30.12R
NORTHERLY ISL    N/A     59  48  67 W6          N/A
$$

LMZ740>746-261100-
SOUTHERN LAKE MICHIGAN

STATION/POSITION SKY/WX   TEMP    WIND        PRES    VSBY  WAVE
                          AIR SEA DIR/SP/G                  HT/PER
                          (F)     (DEG/KT/KT) (MB)    (MI)  (FT/S)
SOUTHERN BUOY              60 61  300/ 14/ 17 1017.6          3/ 5
WILMETTE HARBOR            58 63  260/ 10/ 12   N/A           1/ 2
HARRISON CRIB              60     270/ 11/ 13   N/A
BURNHAM HARBOR             58                   N/A
CALUMET HARBOR             56     240/  3/  5 1018.8R
BURNS HARBOR               59     220/  7/  8 1019.6S
MICHIGAN CITY              62     250/ 13/ 15   N/A
MICHIGAN CITY 6N           62 66  260/ 12/ 16   N/A           3/ 5
ST. JOSEPH                 63 68  300/ 14/ 19 1018.6          5/ 5
$$

ILZ025>027-034>036-040-047-049-050-058-095>099-261100-
WEST-CENTRAL ILLINOIS

CITY           SKY/WX    TMP DP  RH WIND       PRES   REMARKS
QUINCY         CLEAR     55  50  83 NW5       30.19R
GALESBURG*     CLEAR     52  46  79 SW3       30.19R
MACOMB*        CLEAR     49  47  93 W6        30.21R
JACKSONVILLE*  CLEAR     52  47  84 SW6       30.19S
PITTSFIELD*    CLEAR     56  50  81 W3        30.21R
$$

ILZ028>032-037-038-041>044-048-051>054-059>061-261100-
CENTRAL ILLINOIS

CITY           SKY/WX    TMP DP  RH WIND       PRES   REMARKS
PONTIAC        CLEAR     54  53  95 SW8       30.15R
BLOOMINGTON    PTCLDY    53  48  83 W7        30.17R
DECATUR        CLEAR     53  48  83 W6        30.18R
PEORIA         CLEAR     52  48  86 CALM      30.17R
LACON*         CLEAR     51  49  94 CALM      30.15R
LINCOLN*       PTCLDY    57  49  73 CALM      30.17R
SPRINGFIELD    CLEAR     51  48  89 CALM      30.18R
TAYLORVILLE    CLEAR     49  47  93 W3        30.19R
$$

ILZ033-039-045-046-055>057-062-063-261100-
EAST-CENTRAL ILLINOIS

CITY           SKY/WX    TMP DP  RH WIND       PRES   REMARKS
CHAMPAIGN        N/A    N/A N/A N/A MISG      30.17R
RANTOUL*       PTCLDY    53  50  90 SW3       30.16R
MATTOON        PTCLDY    56  51  84 SW6       30.16S
PARIS*         CLEAR     52  49  90 CALM      30.17S
$$

ILZ079-100>102-261100-
SOUTHWEST ILLINOIS

CITY           SKY/WX    TMP DP  RH WIND       PRES   REMARKS
ALTON          CLEAR     54  53  97 CALM      30.21S
BELLEVILLE     CLEAR     53  49  87 CALM      30.22R
CAHOKIA*       CLEAR     52  48  86 CALM      30.21R
SPARTA*        CLEAR     58  49  69 CALM      30.22S
$$

ILZ064>066-069>071-074>076-080>082-084>086-088>090-092>094-261100-
SOUTH-CENTRAL ILLINOIS

CITY           SKY/WX    TMP DP  RH WIND       PRES   REMARKS
CARBONDALE     CLEAR     58  58 100 CALM      30.21R
CAIRO*         CLOUDY    66  55  66 CALM      30.20R
EFFINGHAM*     CLEAR     52  51  95 CALM      30.21R
MARION         CLEAR     59  57  94 CALM      30.21S
MT. VERNON     CLEAR     50  50 100 CALM      30.21R
CENTRALIA*     CLEAR     53  51  92 CALM      30.20S
SALEM*         CLEAR     55  50  82 CALM      30.20S
METROPOLIS*    CLOUDY    65  55  69 CALM      30.19S
$$

ILZ067-068-072-073-078-083-087-091-261100-
SOUTHEAST ILLINOIS

CITY           SKY/WX    TMP DP  RH WIND       PRES   REMARKS
LAWRENCEVILLE  CLEAR     54  52  93 CALM      30.19R
FLORA*         CLEAR     55  48  79 CALM      30.20R
FAIRFIELD*     CLEAR     52  52  98 CALM      30.19R
HARRISBURG*    CLEAR     57  54  91 NW3       30.20S
ROBINSON*      CLEAR     49  48  98 CALM      30.19R
CARMI*         CLEAR     55  53  93 CALM      30.19S
$$

ABBREVIATIONS USED IN REMARKS
   TC - TEMPERATURE IN CELSIUS
  WCI - WIND CHILL INDEX
   HX - HEAT INDEX
  VSB - VISIBILITY
$$




USA.gov is the U.S. government's official web portal to all federal, state and local government web resources and services.